[[{"header":{"parameterUnit":"m.s-1","parameterCategory":1,"la1":30.2991,"la2":30.254,"lo1":-89.0895,"lo2":-89.0444,"dy":0.0017,"dx":0.0017,"nx":28,"ny":28,"refTime":"2025-11-07T03:00:00:Z","depth":0,"parameterNumber":2,"parameterNumberName":"U-component_of_WINDS"},"data":[0,0,0,0,0,0,0,0,0,0,0,0,0,0,0,0,0,0,0,0,0,0,0,0,0,0,0,0,0,0,0,0,0,0,0,0,0,0,0,0,0,0,0,0,0,0,0,0,0,0,0,0,0,0,0,0,0,0,-0.4212,-0.4212,0,-0.4212,-0.4212,-0.4212,-0.4227,-0.4227,-0.4228,-0.4228,-0.4228,-0.4228,-0.4228,0,0,0,0,0,0,0,0,0,0,0,0,0,-0.4223,-0.4223,-0.4212,-0.4212,-0.4212,-0.4212,-0.4212,-0.4212,-0.4227,-0.4227,-0.4228,-0.4228,-0.4229,-0.4228,-0.4228,0,0,0,0,0,0,0,0,0,0,0,0,0,-0.422,-0.4223,-0.4212,-0.4219,-0.422,-0.4212,-0.4212,-0.4212,-0.4227,-0.4227,-0.4228,-0.4229,-0.4229,-0.4228,-0.4228,-0.4213,0,0,-0.4226,-0.4226,0,0,0,0,0,0,0,0,-0.422,-0.422,-0.4218,-0.4218,-0.4219,-0.422,-0.4217,-0.4213,-0.4227,-0.4224,-0.4228,-0.4229,-0.4225,-0.4225,-0.4224,-0.4213,-0.4213,-0.4226,-0.4226,-0.4226,-0.4225,0,0,0,0,0,0,0,-0.4221,-0.422,-0.4212,-0.4218,-0.4219,-0.4222,-0.4223,-0.4216,-0.4221,-0.4224,-0.4225,-0.4225,-0.4226,-0.4224,-0.4224,-0.4213,-0.4226,-0.4226,-0.4225,-0.4225,-0.4192,-0.4191,0,0,0,0,0,0,-0.422,-0.422,-0.4212,-0.4212,-0.4221,-0.4222,-0.4222,-0.4219,-0.4222,-0.4222,-0.4225,-0.4226,-0.4225,-0.4225,-0.4224,-0.4208,-0.4226,-0.4225,-0.4225,-0.4192,-0.4192,-0.4191,0,0,0,0,0,0,-0.422,-0.4219,-0.4212,-0.4216,-0.4216,-0.4221,-0.4218,-0.4219,-0.4218,-0.4222,-0.4223,-0.4222,-0.4225,-0.4225,-0.4216,-0.4208,-0.4225,-0.4224,-0.4193,-0.4192,-0.4191,-0.4175,0,0,0,0,0,0,-0.422,-0.4219,-0.4213,-0.4216,-0.4215,-0.4204,-0.4217,-0.4219,-0.4217,-0.4218,-0.422,-0.4221,-0.4226,-0.4217,-0.4216,-0.4208,-0.4224,-0.4194,-0.4193,-0.4192,-0.4176,-0.4173,-0.4171,0,0,0,0,0,-0.4221,-0.4208,-0.4213,-0.4212,-0.4208,-0.4203,-0.4203,-0.4209,-0.4216,-0.4211,-0.4214,-0.4221,-0.4209,-0.4216,-0.4214,-0.4206,-0.4194,-0.4193,-0.4192,-0.4177,-0.4174,-0.4171,0,0,0,0,0,0,-0.4204,-0.4209,-0.4214,-0.4202,-0.4202,-0.4206,-0.4199,-0.4205,-0.4203,-0.4204,-0.4212,-0.4212,-0.4202,-0.4203,-0.4211,-0.4193,-0.4203,-0.4201,-0.4192,-0.4189,-0.4187,-0.4187,-0.4224,0,0,0,0,0,-0.4199,-0.4194,-0.4199,-0.4188,-0.4188,-0.4193,-0.4191,-0.4196,-0.4196,-0.4196,-0.4198,-0.4198,-0.4195,-0.4192,-0.4189,-0.4176,-0.4177,-0.417,-0.4168,-0.4166,-0.4164,-0.4158,-0.4155,-0.4187,-0.4187,-0.4187,0,0,-0.4189,-0.4191,-0.4187,-0.4185,-0.4185,-0.418,-0.4193,-0.4187,-0.4183,-0.4195,-0.4187,-0.4189,-0.4189,-0.4179,-0.4174,-0.4179,-0.4156,-0.4164,-0.4162,-0.4162,-0.4156,-0.4153,-0.4151,-0.4186,-0.4186,-0.4186,0,0,-0.4167,-0.4168,-0.4159,-0.416,-0.4161,-0.4165,-0.4163,-0.4165,-0.4167,-0.4159,-0.4168,-0.4164,-0.4158,-0.4158,-0.4157,-0.4137,-0.4143,-0.4136,-0.4123,-0.4117,-0.4114,-0.4112,-0.4105,-0.4102,-0.4134,-0.4134,-0.4134,0,-0.4154,-0.4146,-0.4154,-0.4148,-0.4146,-0.4157,-0.4149,-0.4149,-0.4149,-0.4148,-0.4154,-0.4147,-0.4148,-0.4137,-0.4133,-0.4132,-0.413,-0.4135,-0.4114,-0.4112,-0.411,-0.4103,-0.4101,-0.4133,-0.4133,-0.4133,-0.4133,0,-0.413,-0.4125,-0.4118,-0.4118,-0.4116,-0.4109,-0.4115,-0.4113,-0.4118,-0.4122,-0.4114,-0.4116,-0.4113,-0.4112,-0.4116,-0.4102,-0.4106,-0.4113,-0.4123,-0.4106,-0.41,-0.4097,-0.4132,-0.4132,-0.4132,-0.4133,0,0,-0.4097,-0.4102,-0.41,-0.41,-0.4102,-0.4099,-0.4092,-0.409,-0.4088,-0.4088,-0.4083,-0.4077,-0.4084,-0.4083,-0.4089,-0.4083,-0.4068,-0.4091,-0.4091,-0.4087,-0.4053,-0.4047,-0.4044,-0.4072,-0.4072,-0.4072,-0.4053,0,-0.4076,-0.4065,-0.4072,-0.406,-0.4056,-0.4067,-0.4061,-0.4062,-0.4066,-0.4063,-0.4066,-0.4063,-0.4072,-0.4072,-0.4067,-0.407,-0.4061,-0.4072,-0.4068,-0.4067,-0.4067,-0.4041,-0.4035,-0.4017,-0.405,-0.405,-0.405,0,-0.405,-0.405,-0.4037,-0.4041,-0.404,-0.4034,-0.4034,-0.4031,-0.4032,-0.4035,-0.4035,-0.4042,-0.4036,-0.4046,-0.4039,-0.4046,-0.4045,-0.4047,-0.4046,-0.4046,-0.4057,-0.404,-0.4011,-0.4009,-0.4046,-0.4046,-0.4046,0,-0.4028,-0.4024,-0.4016,-0.4016,-0.402,-0.4016,-0.4018,-0.402,-0.4019,-0.4019,-0.4018,-0.4017,-0.4016,-0.4015,-0.4021,-0.4028,-0.4013,-0.4024,-0.4015,-0.4015,-0.4011,-0.4011,-0.3982,-0.401,-0.401,-0.4011,-0.4011,0,-0.4004,-0.3996,-0.4006,-0.4001,-0.3993,-0.4001,-0.3993,-0.3995,-0.3998,-0.3994,-0.4003,-0.3999,-0.4008,-0.4005,-0.401,-0.4003,-0.4003,-0.4005,-0.4007,-0.4004,-0.4004,-0.4003,-0.4005,-0.401,-0.401,-0.401,-0.401,0,-0.3977,-0.3983,-0.3976,-0.3981,-0.3982,-0.3975,-0.398,-0.3976,-0.398,-0.3975,-0.3975,-0.3981,-0.3979,-0.3985,-0.3983,-0.3987,-0.3977,-0.398,-0.3976,-0.3977,-0.3968,-0.3969,-0.3938,-0.3934,-0.3965,-0.3964,-0.3964,0,-0.3961,-0.3955,-0.396,-0.3958,-0.3959,-0.3956,-0.3955,-0.3964,-0.3962,-0.3964,-0.396,-0.3958,-0.3957,-0.3952,-0.3957,-0.3956,-0.396,-0.3949,-0.3959,-0.3957,-0.396,-0.396,-0.396,-0.3946,-0.3946,-0.3946,-0.3945,0,-0.3932,-0.3936,-0.3934,-0.3934,-0.3932,-0.3932,-0.3933,-0.3931,-0.394,-0.3938,-0.3936,-0.3935,-0.3933,-0.3932,-0.3932,-0.3934,-0.3941,-0.3942,-0.394,-0.3937,-0.3936,-0.3937,-0.397,-0.3943,-0.3943,-0.3943,-0.3943,-0.3943,-0.391,-0.3906,-0.3909,-0.3907,-0.3909,-0.3909,-0.3906,-0.391,-0.3908,-0.3908,-0.3913,-0.391,-0.3912,-0.3913,-0.3914,-0.3912,-0.3917,-0.3914,-0.3913,-0.3912,-0.3911,-0.3936,-0.3912,-0.3912,-0.3912,-0.3912,-0.3912,0,-0.3882,-0.3885,-0.3883,-0.3884,-0.3883,-0.389,-0.3892,-0.389,-0.3887,-0.3889,-0.3888,-0.3885,-0.3884,-0.3889,-0.3888,-0.3885,-0.3889,-0.3885,-0.3885,-0.3886,-0.3906,-0.3908,-0.3882,-0.3882,-0.3882,-0.3882,-0.3882,-0.3882,-0.3868,-0.3861,-0.3865,-0.3859,-0.3862,-0.3859,-0.3859,-0.386,-0.3862,-0.3859,-0.3858,-0.3861,-0.3865,-0.3864,-0.3864,-0.3865,-0.3865,-0.3859,-0.3862,-0.3881,-0.3884,-0.3887,-0.3889,-0.3859,-0.3859,-0.3842,-0.3842,-0.3842]},{"header":{"parameterUnit":"m.s-1","parameterCategory":1,"la1":30.2991,"la2":30.254,"lo1":-89.0895,"lo2":-89.0444,"dy":0.0017,"dx":0.0017,"nx":28,"ny":28,"refTime":"2025-11-07T03:00:00:Z","depth":0,"parameterNumber":3,"parameterNumberName":"V-component_of_WINDS"},"data":[0,0,0,0,0,0,0,0,0,0,0,0,0,0,0,0,0,0,0,0,0,0,0,0,0,0,0,0,0,0,0,0,0,0,0,0,0,0,0,0,0,0,0,0,0,0,0,0,0,0,0,0,0,0,0,0,0,0,3.6112,3.6113,0,3.6198,3.6199,3.62,3.619,3.6188,3.6187,3.6186,3.6268,3.6272,3.6275,0,0,0,0,0,0,0,0,0,0,0,0,0,3.5937,3.594,3.6112,3.6113,3.6114,3.6198,3.6199,3.62,3.619,3.6188,3.6187,3.6185,3.6267,3.6271,3.6275,0,0,0,0,0,0,0,0,0,0,0,0,0,3.6017,3.5941,3.6112,3.612,3.6121,3.6197,3.6199,3.62,3.619,3.6188,3.6186,3.6184,3.6266,3.6271,3.6276,3.6348,0,0,3.6292,3.6294,0,0,0,0,0,0,0,0,3.6012,3.6023,3.6117,3.6119,3.6121,3.6181,3.6167,3.625,3.6191,3.6164,3.6186,3.6183,3.6241,3.6248,3.6268,3.6352,3.6356,3.6292,3.6295,3.6298,3.6299,0,0,0,0,0,0,0,3.6007,3.6019,3.6146,3.6119,3.6121,3.6118,3.6127,3.6183,3.6212,3.6166,3.6166,3.6176,3.6241,3.6263,3.627,3.6357,3.6292,3.6297,3.63,3.6302,3.6508,3.651,0,0,0,0,0,0,3.6,3.6015,3.6143,3.6148,3.6061,3.6123,3.6133,3.6164,3.6212,3.6217,3.6178,3.6175,3.6255,3.6264,3.6273,3.6363,3.6297,3.6302,3.6305,3.6506,3.6509,3.6511,0,0,0,0,0,0,3.5996,3.6011,3.614,3.6082,3.6098,3.6128,3.6163,3.6167,3.6189,3.6221,3.6226,3.6195,3.6254,3.6265,3.6331,3.6365,3.6305,3.6309,3.6503,3.6507,3.651,3.6542,0,0,0,0,0,0,3.5991,3.601,3.6038,3.6082,3.6101,3.6197,3.6165,3.617,3.6198,3.6196,3.6238,3.6243,3.6253,3.6323,3.6336,3.6371,3.6313,3.65,3.6505,3.6509,3.6538,3.6546,3.6553,0,0,0,0,0,3.5985,3.6042,3.604,3.6055,3.6137,3.6199,3.6209,3.6221,3.6201,3.6229,3.6251,3.6242,3.636,3.633,3.6344,3.6382,3.6498,3.6503,3.6509,3.6534,3.6544,3.6553,0,0,0,0,0,0,3.5998,3.6048,3.6046,3.6119,3.6156,3.6197,3.6233,3.6231,3.6272,3.6268,3.628,3.6289,3.6356,3.6375,3.6341,3.6456,3.6426,3.6434,3.644,3.645,3.6458,3.6451,3.6318,0,0,0,0,0,3.6011,3.6058,3.6098,3.6159,3.6178,3.6203,3.623,3.6237,3.6274,3.6288,3.6314,3.6349,3.6394,3.6423,3.6466,3.6541,3.6551,3.6574,3.6582,3.6588,3.6595,3.6637,3.6649,3.6529,3.6529,3.6529,0,0,3.6034,3.6068,3.6096,3.6163,3.6191,3.624,3.6215,3.6266,3.6302,3.6295,3.6359,3.638,3.642,3.6491,3.6523,3.6509,3.663,3.6595,3.6599,3.6603,3.6644,3.6655,3.6665,3.6532,3.6532,3.6531,0,0,3.6103,3.6133,3.6188,3.6219,3.6264,3.6281,3.6294,3.6338,3.6352,3.6417,3.6414,3.6456,3.6533,3.6563,3.6587,3.6672,3.6666,3.6686,3.6725,3.6767,3.6776,3.6785,3.6816,3.6827,3.6693,3.6693,3.6693,0,3.6127,3.6201,3.6216,3.627,3.6299,3.6299,3.6354,3.6382,3.6438,3.6459,3.6443,3.6542,3.6568,3.6647,3.6669,3.6689,3.6704,3.668,3.6774,3.6783,3.6791,3.682,3.6832,3.6695,3.6695,3.6695,3.6694,0,3.6229,3.628,3.6319,3.6377,3.6411,3.6465,3.6488,3.6521,3.6525,3.6544,3.6611,3.6644,3.6695,3.6715,3.6718,3.6795,3.6785,3.6772,3.6741,3.6804,3.6832,3.6844,3.6698,3.6697,3.6697,3.6696,0,0,3.6305,3.6374,3.6388,3.6415,3.6467,3.6506,3.6561,3.6614,3.6642,3.6681,3.6728,3.6795,3.6784,3.6813,3.682,3.6857,3.6924,3.6839,3.684,3.6854,3.7012,3.7021,3.7034,3.6921,3.6923,3.6925,3.7008,0,3.638,3.6479,3.6496,3.6582,3.663,3.6632,3.668,3.6717,3.6736,3.678,3.6801,3.6849,3.683,3.6848,3.6885,3.6908,3.6955,3.6902,3.6963,3.6965,3.6953,3.7049,3.7058,3.7136,3.7019,3.7021,3.7023,0,3.6479,3.6525,3.6617,3.6665,3.6686,3.6728,3.6779,3.6821,3.6863,3.6875,3.6909,3.6913,3.697,3.694,3.7019,3.6982,3.7009,3.7024,3.7027,3.7033,3.6997,3.7057,3.716,3.7172,3.704,3.7039,3.7037,0,3.6527,3.6611,3.6678,3.6701,3.6758,3.6788,3.6813,3.6854,3.6885,3.693,3.695,3.7,3.7027,3.7065,3.7083,3.7058,3.7161,3.7131,3.7172,3.7172,3.7193,3.7191,3.7302,3.721,3.721,3.721,3.721,0,3.6607,3.6664,3.67,3.6741,3.6805,3.6824,3.6886,3.691,3.6947,3.6992,3.6996,3.7038,3.7059,3.7105,3.7119,3.7183,3.7195,3.7206,3.7209,3.7205,3.7204,3.7222,3.7217,3.7213,3.7212,3.7212,3.7211,0,3.667,3.6697,3.677,3.682,3.6834,3.6879,3.6921,3.6961,3.6982,3.704,3.7054,3.7087,3.7141,3.7163,3.7228,3.7238,3.7312,3.7311,3.7298,3.7299,3.734,3.7336,3.7466,3.7484,3.738,3.7381,3.7382,0,3.672,3.6764,3.682,3.6852,3.6879,3.693,3.6963,3.6984,3.7019,3.7072,3.7106,3.7161,3.7205,3.7292,3.7321,3.7372,3.7372,3.7414,3.7379,3.7375,3.7373,3.737,3.7375,3.742,3.7421,3.7422,3.7422,0,3.6806,3.6818,3.6867,3.6921,3.6962,3.7005,3.7047,3.7072,3.71,3.7139,3.7196,3.7231,3.73,3.7354,3.7408,3.7432,3.7432,3.7434,3.7446,3.7442,3.7434,3.744,3.7316,3.743,3.7429,3.7429,3.7428,3.7428,3.6864,3.6904,3.6951,3.7006,3.7041,3.7081,3.7122,3.715,3.7198,3.7257,3.7267,3.7328,3.7371,3.7443,3.7471,3.7519,3.7508,3.7525,3.753,3.7534,3.7537,3.7427,3.7528,3.7528,3.7528,3.7528,3.7528,0,3.695,3.6981,3.7032,3.7093,3.7136,3.7135,3.7183,3.7219,3.7273,3.7315,3.736,3.7427,3.7481,3.7516,3.757,3.7602,3.7603,3.7615,3.7613,3.7619,3.7543,3.7527,3.7613,3.7613,3.7613,3.7613,3.7613,3.7613,3.7,3.7069,3.7087,3.7173,3.7204,3.7265,3.7293,3.733,3.7364,3.7439,3.7485,3.7508,3.7547,3.7605,3.7655,3.7664,3.7684,3.7697,3.7705,3.7633,3.7624,3.7615,3.7601,3.7701,3.7701,3.7777,3.7777,3.7778]}]]